Terminal Aerodrome Forecast
Issued by NWS

Home | Current Version | Previous Version | Text Only | Print | Product List | Glossary On
Versions: 1 2 3 4 5 6 7 8 9 10 11 12 13 14 15 16 17 18 19 20 21 22 23 24 25 26 27 28 29 30
000
FTUS46 KOTX 290231 AAA
TAFCOE
TAF AMD
KCOE 290231Z 2903/2924 04006KT 6SM TSRA BKN060CB BKN150
     FM290500 25004KT P6SM VCTS SCT070CB BKN090 BKN150
     FM290600 08007KT P6SM FEW080 BKN120
     FM292200 18006KT P6SM VCTS SCT070CB BKN090 BKN150
      AMD LTD TO CLD AND VIS=

USA.gov is the U.S. government's official web portal to all federal, state and local government web resources and services.